Overview Statistics Trail Chart Weather Telemetry Raw packets
 

This is the latest recevied weather packets stored in our database for station/object K2CAT. If no packets are shown the sender has not sent any weather packets the latest 10 day(s).

<< 75 76 77 78 79 80 81 >>
Time Temp. Humidity Pressure Rain* Wind** Luminosity Snow
1777166697 5.56° C 97% 1019.1 hPa 1.78 mm - 0 W/m² -
1777166392 5.56° C 97% 1019 hPa 1.27 mm - 0 W/m² -
1777166088 5.56° C 97% 1019.1 hPa 1.27 mm - 0 W/m² -
1777165786 6.11° C 97% 1019.3 hPa 1.27 mm - 0 W/m² -
1777165483 5.56° C 97% 1019.1 hPa 1.78 mm - 0 W/m² -
1777165178 5.56° C 97% 1018.9 hPa 3.05 mm - 0 W/m² -
1777164874 6.11° C 97% 1019.1 hPa 3.05 mm - 0 W/m² -
1777164572 5.56° C 97% 1019 hPa 1.78 mm - 0 W/m² -
1777164267 5.56° C 97% 1018.9 hPa 3.05 mm - 0 W/m² -
1777163962 5.56° C 97% 1018.7 hPa 3.05 mm - 0 W/m² -
1777163661 5.56° C 97% 1018.8 hPa 3.56 mm - 0 W/m² -
1777163356 5.56° C 97% 1018.9 hPa 3.05 mm - 0 W/m² -
1777163054 5.56° C 97% 1018.5 hPa 1.27 mm - 0 W/m² -
1777162753 5.56° C 97% 1018.7 hPa 1.78 mm - 0 W/m² -
1777162449 5.56° C 97% 1018.4 hPa 3.05 mm - 0 W/m² -
1777162148 6.11° C 97% 1018.5 hPa 3.05 mm - 0 W/m² -
1777161844 6.11° C 97% 1018.6 hPa 3.05 mm - 0 W/m² -
1777161540 6.11° C 97% 1018.2 hPa 3.05 mm - 0 W/m² -
1777161237 6.11° C 97% 1018.2 hPa 3.05 mm - 0 W/m² -
1777160932 6.11° C 97% 1018 hPa 1.27 mm - 0 W/m² -
1777160628 6.11° C 97% 1018 hPa 1.78 mm - 0 W/m² -
1777160324 6.11° C 97% 1017.9 hPa 3.05 mm - 1 W/m² -
1777160021 6.11° C 96% 1017.7 hPa 4.32 mm - 1 W/m² -
1777159716 6.11° C 96% 1017.7 hPa 4.83 mm - 2 W/m² -
1777159412 6.11° C 96% 1017.7 hPa 3.05 mm - 2 W/m² -

* Rain latest hour (hover to see other rain measurements)
** Current wind speed in m/s (hover to see current wind gust speed)